NOAA 16 DEB

Satellite information

Favourite Embed

Satellite Type and Status

DEBRISIN ORBIT

Key statistics

Satellite NOAA 16 DEB at a glance.

Uptime

9055

Days in orbit

Revolutions

≈ 14.2

Per day

Orbit

SSO

Sun Synchronous Orbit

Inclination

98.7

Latest

Satellite identification and parameters

Extended collection of information and parameters for NOAA 16 DEB.

Object identification

Identified? True

Debris? True

Object name: NOAA 16 DEB

International designator: 2000-055QR

Object number (NORAD): 42349

Object ID (CCSDS): 42349

Country: UNITED STATES OF AMERICA (US)

Current information (Y/N): Y

RCS size: SMALL

Orbital parameters

Period: 101.213 minutes

Inclination: 98.6888 deg

SMA: 7194.243 km

Apoapsis: 823.025 km

Periapsis: 809.192 km

RAAN: 244.2744 deg

Eccentricy: 0.0009614

Argument of periapsis: 49.6895 deg

Mean anomaly: 310.5122 deg

Mean motion: 14.22738548 rev/day

Mean motion (dot): 0.00002391 rev/day2

B* drag term: 0.0010858 1/REarth

Two-line elements (TLE)

Creation date: July 3, 2025, 5:26 p.m.

Reference frame: TEME

Reference center: EARTH

Epoch: July 3, 2025, 2:53 p.m. UTC

TLE line 0: 0 NOAA 16 DEB

TLE line 1: 1 42349U 00055QR 25184.62050708 .00002391 00000-0 10858-2 0 9999

TLE line 2: 2 42349 98.6888 244.2744 0009614 49.6895 310.5122 14.22738548477601

Live tracking on map

Real-time ground track for satellite NOAA 16 DEB.

In-orbit conjunctions

A list of the most updated potential collisions computed for object NOAA 16 DEB.

Target Orbit TCA Probability of collision Miss distance Type
COSMOS 1275 DEB LEO 2024-11-12 14:24:20 0.0001083088 670.0 (m) DEBRIS
FENGYUN 1C DEB SSO 2024-09-28 22:13:37 0.0004311143 102.0 (m) DEBRIS

Associated space launch

The NOAA K, L and M POES satellites begin the fifth generation of improved environmental monitoring in support of NOAA missions. The instrument payload has significant improvements and additions/deletions. The instrument changes have effected the spacecraft subsystems and data formats.

NOAA 16 DEB was lifted into orbit during the mission ‘Titan II SLV | NOAA 16’, on board a Titan II SLV space rocket.

The launch took place on Sept. 21, 2000, 10:22 a.m. from Space Launch Complex 4W.

For more information about the launch, click the button.

Launch to space Titan II SLV | NOAA 16
Titan II SLV | NOAA 16

Agency: N/A

Status: Launch Successful

Launch date: Sept. 21, 2000, 10:22 a.m. UTC

Rocket: Titan II SLV

Launch pad: Space Launch Complex 4W

Location: Vandenberg SFB, CA, USA

...

Latest news about this satellite

There are no fresh news available about this satellite. Check back as we update our databases every day.


Newsletter sign-up

Weekly statistics, charts and insights to help you stay on top of the space industry.